Location: Pensacola
(30.4142°N, 87.2155°W)
Time: 14:25:11
(UTC-05:00)

Amateur Radio Satellites - All Passes

Search period start: 24 September 2017 13:55
Search period end: 25 September 2017 13:55
Location: Pensacola, 30.4142°N, 87.2155°W

Satellite Date Start Highest point End Downlink Frequencies (MHz)
Time Altitude Azimuth
Oscar 19 24 Sep 14:03:20 14:08:23 53° 259° (W) 14:13:29 437.125/150
RS-15 24 Sep 14:12:36 14:24:05 51° 56° (NE) 14:34:53 29.354- 29.394
UKube-1 24 Sep 14:16:08 14:20:16 46° 100° (E) 14:24:24 .
DX 1 24 Sep 14:24:48 14:29:08 80° 284° (WNW) 14:33:28 434.975-435.025
50 SAT 24 Sep 14:30:39 14:33:37 32° 285° (WNW) 14:36:36 437.505
PCSat 24 Sep 14:31:37 14:37:01 74° 295° (WNW) 14:42:27 145.827
AO-7 24 Sep 14:40:42 14:48:14 40° 65° (ENE) 14:55:45 .
ITUPSAT 1 24 Sep 14:54:19 14:56:06 12° 94° (E) 14:57:53 437.325
ITAMSAT 1 24 Sep 15:10:34 15:15:16 37° 72° (ENE) 15:19:59 435.822/435.867
BEESAT 24 Sep 15:28:08 15:32:23 31° 98° (E) 15:36:37 436.000
MOZHAYETS 4 24 Sep 15:50:50 15:55:25 60° 101° (E) 15:59:57
UKube-1 24 Sep 15:54:28 15:55:49 11° 293° (WNW) 15:57:10 .
JUGNU 24 Sep 16:07:51 16:08:34 10° 160° (SSE) 16:09:18 437.505
CUBESAT XI-V 24 Sep 16:20:30 16:24:07 23° 96° (E) 16:27:43 437.345
RS-15 24 Sep 16:25:41 16:36:02 39° 254° (WSW) 16:45:57 29.354- 29.394
ITUPSAT 1 24 Sep 16:29:27 16:34:07 51° 286° (WNW) 16:38:45 437.325
AO-7 24 Sep 16:33:17 16:40:50 38° 259° (W) 16:48:26 .
DOVE 4 24 Sep 16:37:16 16:40:35 21° 72° (ENE) 16:43:48 437.250
ITAMSAT 1 24 Sep 16:51:06 16:54:45 19° 264° (W) 16:58:25 435.822/435.867
BEESAT 24 Sep 17:06:25 17:09:54 20° 291° (WNW) 17:13:22 436.000
CUTE-I 24 Sep 17:08:36 17:10:52 13° 65° (ENE) 17:13:07 437.470
Tancredo 1 24 Sep 17:14:53 17:15:11 10° 126° (SE) 17:15:29 437.200
NUDT-PHONESAT 24 Sep 17:29:25 17:30:55 12° 70° (ENE) 17:32:25 437.300
XW-2C 24 Sep 17:30:32 17:33:18 19° 72° (ENE) 17:36:05 145.795 - 145.815
MOZHAYETS 4 24 Sep 17:31:38 17:31:58 10° 294° (WNW) 17:32:18
KKS-1 24 Sep 17:40:07 17:44:31 61° 100° (E) 17:48:55 437.445
LilacSat-2 24 Sep 17:43:23 17:46:48 31° 74° (ENE) 17:50:15 437.200
JUGNU 24 Sep 17:52:34 17:57:01 22° 168° (SSE) 18:01:27 437.505
KAITUO 1B 24 Sep 17:57:35 18:00:58 31° 74° (ENE) 18:04:21 145.475/437.950
CUBESAT XI-V 24 Sep 17:57:36 18:01:22 25° 289° (WNW) 18:05:06 437.345
STARS 24 Sep 18:01:36 18:05:45 39° 100° (E) 18:09:52 437.465
BEESAT 3 24 Sep 18:13:20 18:15:54 17° 109° (ESE) 18:18:29 437.485
DOVE 4 24 Sep 18:14:26 18:18:07 24° 262° (W) 18:21:39 437.250
CUTE 1.7 + AOD 2 24 Sep 18:28:19 18:31:19 19° 71° (ENE) 18:34:20 437.475
XW-2D 24 Sep 18:29:36 18:33:22 57° 260° (W) 18:37:10 145.860 - 145.880
HO-68 24 Sep 18:38:56 18:45:33 43° 69° (ENE) 18:52:12 435.675
XW-2F 24 Sep 18:41:13 18:44:51 43° 261° (W) 18:48:32 145.980 - 146.000
XW-2B 24 Sep 18:42:11 18:45:47 40° 261° (W) 18:49:26 145.730 - 145.750
nSIGHT-1 24 Sep 18:43:40 18:45:50 17° 127° (SE) 18:48:01 .
CUTE-I 24 Sep 18:45:04 18:50:18 62° 258° (WSW) 18:55:34 437.470
Tancredo 1 24 Sep 18:47:00 18:49:22 28° 318° (NW) 18:51:45 437.200
XW-2A 24 Sep 18:59:22 19:01:06 13° 71° (ENE) 19:02:50 145.665 - 145.685
NUDT-PHONESAT 24 Sep 19:01:06 19:04:26 31° 262° (W) 19:07:47 437.300
XW-2C 24 Sep 19:04:26 19:07:18 20° 264° (W) 19:10:12 145.795 - 145.815
CUBEBUG 2 24 Sep 19:08:20 19:11:59 29° 72° (ENE) 19:15:45 437.445
UWE-3 24 Sep 19:13:35 19:16:34 19° 70° (ENE) 19:19:37 435.000/436.395/437.385
AO-85 24 Sep 19:17:11 19:20:29 26° 112° (ESE) 19:23:47 145.980
LilacSat-2 24 Sep 19:19:24 19:21:06 12° 266° (W) 19:22:47 437.200
SRMSAT 24 Sep 19:21:25 19:23:48 12° 162° (SSE) 19:26:10 437.500
SEEDS 24 Sep 19:32:16 19:36:30 71° 77° (ENE) 19:40:43 437.485
KAITUO 1B 24 Sep 19:33:33 19:34:58 12° 266° (W) 19:36:23 145.475/437.950
STARS 24 Sep 19:39:25 19:41:41 14° 292° (WNW) 19:43:57 437.465
JUGNU 24 Sep 19:40:27 19:45:32 29° 178° (S) 19:50:36 437.505
ISS 24 Sep 19:41:29 19:44:43 89° 146° (SSE) 19:48:00 437.550
BEESAT 3 24 Sep 19:49:42 19:53:11 28° 303° (WNW) 19:56:42 437.485
AAUSAT CUBESAT 2 24 Sep 19:51:39 19:55:39 48° 76° (ENE) 19:59:40 437.432
Oscar 11 24 Sep 19:52:54 19:55:44 17° 70° (ENE) 19:58:34 .
STRAND 1 24 Sep 19:53:23 19:58:22 49° 100° (E) 20:03:21 437.568
AO-73 24 Sep 19:54:18 19:57:53 26° 72° (ENE) 20:01:32 145.935
ZACube-1 24 Sep 19:57:35 20:01:25 32° 73° (ENE) 20:05:21 437.345
BEESAT 2 24 Sep 19:59:09 20:03:07 85° 296° (WNW) 20:07:10 435.950
CUTE 1.7 + AOD 2 24 Sep 20:03:17 20:06:54 26° 263° (W) 20:10:32 437.475
nSIGHT-1 24 Sep 20:19:10 20:21:59 27° 320° (NW) 20:24:47 .
HO-68 24 Sep 20:27:21 20:33:17 28° 263° (W) 20:39:15 435.675
XW-2A 24 Sep 20:30:53 20:33:33 21° 263° (W) 20:36:15 145.665 - 145.685
CUBEBUG 2 24 Sep 20:45:58 20:48:36 16° 266° (W) 20:51:18 437.445
UWE-3 24 Sep 20:49:10 20:52:46 27° 263° (W) 20:56:28 435.000/436.395/437.385
NO-84 24 Sep 20:53:55 20:56:49 83° 228° (SW) 20:59:37 435.350 FM
AO-85 24 Sep 20:58:15 21:00:50 17° 305° (NW) 21:03:25 145.980
SRMSAT 24 Sep 21:07:46 21:12:23 24° 170° (S) 21:17:00 437.500
DELFI C3 24 Sep 21:09:38 21:12:58 26° 73° (ENE) 21:16:16 145.870
FO-29 24 Sep 21:10:16 21:15:25 32° 99° (E) 21:21:05 435.910
EO-88 24 Sep 21:22:27 21:25:02 19° 72° (ENE) 21:27:39 145.990 - 145.960
Oscar 11 24 Sep 21:27:44 21:31:34 30° 263° (W) 21:35:25 .
JUGNU 24 Sep 21:29:13 21:34:05 26° 188° (S) 21:38:54 437.505
AO-73 24 Sep 21:30:54 21:34:01 19° 265° (W) 21:37:12 145.935
STRAND 1 24 Sep 21:34:10 21:37:04 15° 293° (WNW) 21:39:58 437.568
ZACube-1 24 Sep 21:35:10 21:37:44 15° 266° (W) 21:40:19 437.345
UNISAT 6 24 Sep 21:39:32 21:42:33 17° 95° (E) 21:45:33 437.425
Max Valier Satellite 24 Sep 21:56:57 22:00:38 87° 79° (E) 22:04:22 145.860
TIGRISAT 24 Sep 22:01:59 22:06:01 28° 97° (E) 22:10:02 435.000
PRISM 24 Sep 22:14:07 22:16:52 17° 96° (E) 22:19:35 437.425
SO-50 24 Sep 22:27:28 22:31:10 23° 55° (NE) 22:34:54 436.795
DELFI C3 24 Sep 22:45:16 22:47:40 15° 265° (W) 22:50:03 145.870
FO-29 24 Sep 22:55:33 23:00:20 28° 289° (WNW) 23:05:35 435.910
EO-88 24 Sep 22:55:54 22:58:31 19° 264° (W) 23:01:10 145.990 - 145.960
SRMSAT 24 Sep 22:56:00 23:01:04 29° 180° (S) 23:06:06 437.500
UNISAT 6 24 Sep 23:14:59 23:19:15 36° 287° (WNW) 23:23:32 437.425
JUGNU 24 Sep 23:19:09 23:22:31 16° 197° (SSW) 23:25:53 437.505
PCSat 24 Sep 23:25:45 23:30:19 27° 58° (ENE) 23:34:51 145.827
AIST 2D 24 Sep 23:32:39 23:35:48 30° 98° (E) 23:38:54 435.315
YUBILEINY 24 Sep 23:36:27 23:45:11 69° 83° (E) 23:53:54 435.215
TIGRISAT 24 Sep 23:38:53 23:42:27 22° 289° (WNW) 23:46:02 435.000
ESTCUBE 1 24 Sep 23:46:56 23:51:27 75° 258° (WSW) 23:55:59 437.505/2401.250
LO-87 24 Sep 23:47:05 23:50:20 35° 261° (W) 23:53:36 145.935 - 145.965
POLYITAN 1 24 Sep 23:48:17 23:51:11 18° 95° (E) 23:54:04 437.675
PRISM 24 Sep 23:48:43 23:52:02 25° 288° (WNW) 23:55:22 437.425
EO-79 24 Sep 23:51:58 23:55:05 20° 96° (E) 23:58:12 145.935-145.965
SPROUT 24 Sep 23:59:23 00:03:04 30° 73° (ENE) 00:06:45 437.525
QB50P2 25 Sep 00:05:27 00:09:19 32° 98° (E) 00:13:09 145.880/145.840
SO-50 25 Sep 00:07:35 00:11:34 29° 248° (WSW) 00:15:34 436.795
VELOX 1 25 Sep 00:10:33 00:14:23 30° 72° (ENE) 00:18:13 145.980
NANOSAT C BR1 25 Sep 00:39:07 00:43:22 71° 101° (ESE) 00:47:37 145.865
SRMSAT 25 Sep 00:45:05 00:49:44 24° 190° (S) 00:54:24 437.500
50 SAT 25 Sep 00:54:48 00:57:32 24° 74° (ENE) 01:00:17 437.505
UKube-1 25 Sep 01:05:46 01:08:49 19° 70° (ENE) 01:11:52 .
DUCHIFAT 1 25 Sep 01:06:49 01:11:00 58° 285° (WNW) 01:15:10 145.980
AIST 2D 25 Sep 01:08:14 01:08:36 10° 290° (WNW) 01:08:58 435.315
PCSat 25 Sep 01:08:55 01:13:38 31° 252° (WSW) 01:18:20 145.827
DX 1 25 Sep 01:14:34 01:18:37 40° 73° (ENE) 01:22:40 434.975-435.025
M-CUBED/EXP-1 PRIME 25 Sep 01:17:01 01:20:05 37° 104° (ESE) 01:23:08 437.505
POLYITAN 1 25 Sep 01:23:13 01:26:54 28° 288° (WNW) 01:30:33 437.675
EO-79 25 Sep 01:27:14 01:30:44 25° 288° (WNW) 01:34:14 145.935-145.965
YUBILEINY 25 Sep 01:35:27 01:41:02 19° 278° (W) 01:46:39 435.215
BUGSAT 1 25 Sep 01:36:19 01:40:32 71° 101° (E) 01:44:46 437.445
SPROUT 25 Sep 01:36:20 01:38:56 16° 265° (W) 01:41:33 437.525
QB50P2 25 Sep 01:42:12 01:44:46 16° 291° (WNW) 01:47:19 145.880/145.840
VELOX 1 25 Sep 01:47:53 01:50:47 17° 264° (W) 01:53:42 145.980
O/OREOS (USA 219) 25 Sep 02:04:10 02:08:39 87° 292° (WNW) 02:13:11 437.305
Gurwin Techsat 1B 25 Sep 02:17:13 02:22:23 51° 100° (E) 02:27:31 435.225
Oscar 19 25 Sep 02:20:32 02:25:42 87° 103° (ESE) 02:30:50 437.125/150
50 SAT 25 Sep 02:29:18 02:30:00 10° 265° (W) 02:30:42 437.505
BEESAT 25 Sep 02:29:38 02:33:01 20° 69° (ENE) 02:36:26 436.000
SRMSAT 25 Sep 02:35:42 02:38:19 13° 198° (SSW) 02:40:57 437.500
UKube-1 25 Sep 02:40:59 02:44:36 26° 262° (W) 02:48:14 .
Tancredo 1 25 Sep 02:44:59 02:47:32 41° 229° (SW) 02:50:05 437.200
MOZHAYETS 4 25 Sep 02:47:13 02:51:10 29° 72° (ENE) 02:55:10
AO-7 25 Sep 02:50:36 02:55:20 16° 95° (E) 03:00:00 .
nSIGHT-1 25 Sep 02:50:50 02:53:15 19° 38° (NE) 02:55:38 .
DX 1 25 Sep 02:53:07 02:54:53 12° 266° (W) 02:56:40 434.975-435.025
CUBESAT XI-V 25 Sep 03:19:46 03:21:45 13° 67° (ENE) 03:23:43 437.345
ITAMSAT 1 25 Sep 03:29:38 03:33:32 21° 96° (E) 03:37:26 435.822/435.867
ITUPSAT 1 25 Sep 03:30:02 03:34:48 86° 258° (WSW) 03:39:36 437.325
ISS 25 Sep 03:49:56 03:53:14 81° 43° (NE) 03:56:30 437.550
Gurwin Techsat 1B 25 Sep 03:58:47 04:01:50 16° 294° (WNW) 04:04:52 435.225
BEESAT 25 Sep 04:06:18 04:10:31 32° 262° (W) 04:14:46 436.000
BEESAT 3 25 Sep 04:11:28 04:14:46 25° 57° (ENE) 04:18:00 437.485
BEESAT 2 25 Sep 04:24:41 04:25:25 10° 51° (NE) 04:26:09 435.950
MOZHAYETS 4 25 Sep 04:24:55 04:28:15 20° 265° (W) 04:31:38
RS-15 25 Sep 04:26:38 04:38:21 58° 110° (ESE) 04:50:17 29.354- 29.394
nSIGHT-1 25 Sep 04:26:44 04:29:34 27° 231° (SW) 04:32:23 .
KKS-1 25 Sep 04:32:52 04:36:36 27° 72° (ENE) 04:40:19 437.445
AO-7 25 Sep 04:40:21 04:48:38 80° 289° (WNW) 04:56:55 .
STARS 25 Sep 04:53:35 04:56:28 18° 69° (ENE) 04:59:21 437.465
CUBESAT XI-V 25 Sep 04:54:03 04:58:37 50° 261° (W) 05:03:11 437.345
ITAMSAT 1 25 Sep 05:08:18 05:12:58 35° 289° (WNW) 05:17:39 435.822/435.867
AO-85 25 Sep 05:31:58 05:36:34 72° 62° (ENE) 05:41:31 145.980
BEESAT 3 25 Sep 05:49:24 05:52:05 18° 251° (WSW) 05:54:45 437.485
BEESAT 2 25 Sep 05:59:31 06:03:27 54° 245° (WSW) 06:07:18 435.950
XW-2D 25 Sep 06:08:16 06:11:09 21° 96° (E) 06:14:01 145.860 - 145.880
KKS-1 25 Sep 06:09:54 06:13:04 19° 264° (W) 06:16:15 437.445
DOVE 4 25 Sep 06:17:13 06:21:30 62° 283° (WNW) 06:26:00 437.250
XW-2F 25 Sep 06:19:02 06:22:13 26° 97° (E) 06:25:23 145.980 - 146.000
XW-2B 25 Sep 06:20:18 06:23:37 29° 98° (E) 06:26:54 145.730 - 145.750
STARS 25 Sep 06:28:43 06:32:31 30° 262° (W) 06:36:20 437.465
AO-7 25 Sep 06:36:32 06:40:06 13° 305° (NW) 06:43:39 .
NUDT-PHONESAT 25 Sep 06:36:33 06:39:56 33° 98° (E) 06:43:16 437.300
RS-15 25 Sep 06:40:06 06:51:13 39° 309° (NW) 07:02:30 29.354- 29.394
XW-2C 25 Sep 06:41:24 06:45:09 61° 101° (E) 06:48:51 145.795 - 145.815
LilacSat-2 25 Sep 06:55:42 06:59:31 75° 282° (WNW) 07:03:17 437.200
STRAND 1 25 Sep 07:03:45 07:08:26 39° 72° (ENE) 07:13:08 437.568
CUBEBUG 2 25 Sep 07:06:32 07:07:56 11° 93° (E) 07:09:21 437.445
KAITUO 1B 25 Sep 07:07:31 07:11:14 79° 283° (WNW) 07:14:55 145.475/437.950
CUTE-I 25 Sep 07:07:43 07:13:04 85° 103° (ESE) 07:18:25 437.470
SEEDS 25 Sep 07:22:42 07:25:31 18° 95° (E) 07:28:18 437.485
AAUSAT CUBESAT 2 25 Sep 07:41:31 07:42:48 11° 93° (E) 07:44:04 437.432
XW-2D 25 Sep 07:42:32 07:45:08 18° 289° (WNW) 07:47:43 145.860 - 145.880
CUTE 1.7 + AOD 2 25 Sep 07:52:55 07:57:09 80° 102° (ESE) 08:01:20 437.475
XW-2F 25 Sep 07:54:00 07:56:03 14° 290° (WNW) 07:58:06 145.980 - 146.000
ZACube-1 25 Sep 07:54:03 07:54:56 10° 92° (E) 07:55:50 437.345
XW-2B 25 Sep 07:55:39 07:57:28 13° 290° (WNW) 07:59:17 145.730 - 145.750
XW-2A 25 Sep 07:57:24 08:00:25 29° 98° (E) 08:03:24 145.665 - 145.685
HO-68 25 Sep 07:59:41 08:06:54 78° 104° (ESE) 08:14:05 435.675
NUDT-PHONESAT 25 Sep 08:12:22 08:13:24 11° 291° (WNW) 08:14:26 437.300
CUBEBUG 2 25 Sep 08:40:07 08:44:44 54° 285° (WNW) 08:49:22 437.445
UWE-3 25 Sep 08:43:13 08:47:55 89° 287° (WNW) 08:52:34 435.000/436.395/437.385
STRAND 1 25 Sep 08:44:15 08:47:39 18° 265° (W) 08:51:05 437.568
TIGRISAT 25 Sep 08:57:16 08:58:48 12° 67° (ENE) 09:00:20 435.000
SEEDS 25 Sep 08:57:39 09:01:07 26° 287° (WNW) 09:04:34 437.485
FO-29 25 Sep 09:01:29 09:07:16 62° 75° (ENE) 09:12:32 435.910
RS-15 25 Sep 09:06:23 09:08:49 11° 339° (NNW) 09:11:14 29.354- 29.394
AAUSAT CUBESAT 2 25 Sep 09:14:32 09:18:20 38° 286° (WNW) 09:22:07 437.432
Oscar 11 25 Sep 09:19:53 09:24:13 75° 100° (E) 09:28:31 .
AO-73 25 Sep 09:22:55 09:27:27 67° 284° (WNW) 09:31:55 145.935
ZACube-1 25 Sep 09:26:58 09:31:26 52° 285° (WNW) 09:35:49 437.345
XW-2A 25 Sep 09:32:37 09:32:46 10° 290° (WNW) 09:32:54 145.665 - 145.685
Max Valier Satellite 25 Sep 09:34:15 09:35:44 12° 94° (E) 09:37:12 145.860
HO-68 25 Sep 09:49:43 09:53:46 16° 299° (WNW) 09:57:49 435.675
UNISAT 6 25 Sep 10:07:29 10:11:47 82° 257° (WSW) 10:16:13 437.425
DELFI C3 25 Sep 10:25:47 10:29:42 83° 282° (WNW) 10:33:35 145.870
EO-88 25 Sep 10:28:50 10:32:24 52° 100° (E) 10:35:57 145.990 - 145.960
NO-84 25 Sep 10:30:20 10:30:59 10° 121° (ESE) 10:31:38 435.350 FM
TIGRISAT 25 Sep 10:30:52 10:34:59 45° 261° (W) 10:39:13 435.000
PRISM 25 Sep 10:31:11 10:35:16 82° 258° (WSW) 10:39:22 437.425
YUBILEINY 25 Sep 10:39:17 10:42:59 13° 80° (E) 10:46:40 435.215
FO-29 25 Sep 10:50:35 10:52:30 12° 265° (W) 10:54:23 435.910
QB50P2 25 Sep 10:54:24 10:56:02 12° 68° (ENE) 10:57:41 145.880/145.840
Max Valier Satellite 25 Sep 11:06:18 11:09:34 29° 286° (WNW) 11:12:48 145.860
LO-87 25 Sep 11:19:25 11:22:22 23° 97° (E) 11:25:20 145.935 - 145.965
NANOSAT C BR1 25 Sep 11:25:58 11:29:18 24° 72° (ENE) 11:32:40 145.865
RS-15 25 Sep 11:28:07 11:30:17 11° 20° (NNE) 11:32:25 29.354- 29.394
AIST 2D 25 Sep 11:33:29 11:37:00 71° 259° (WSW) 11:40:33 435.315
ESTCUBE 1 25 Sep 11:45:15 11:49:21 35° 99° (E) 11:53:25 437.505/2401.250
DUCHIFAT 1 25 Sep 11:52:36 11:56:33 44° 75° (ENE) 12:00:33 145.980
M-CUBED/EXP-1 PRIME 25 Sep 11:57:12 12:00:37 23° 69° (ENE) 12:03:53 437.505
NO-84 25 Sep 12:04:03 12:08:05 62° 310° (NW) 12:11:52 435.350 FM
POLYITAN 1 25 Sep 12:09:06 12:13:17 82° 260° (W) 12:17:31 437.675
EO-79 25 Sep 12:12:50 12:17:01 73° 259° (W) 12:21:13 145.935-145.965
O/OREOS (USA 219) 25 Sep 12:19:47 12:24:24 69° 71° (ENE) 12:28:57 437.305
BUGSAT 1 25 Sep 12:21:05 12:24:08 21° 71° (ENE) 12:27:14 437.445
QB50P2 25 Sep 12:27:26 12:31:23 41° 261° (W) 12:35:23 145.880/145.840
YUBILEINY 25 Sep 12:29:48 12:38:31 87° 275° (W) 12:47:15 435.215
SO-50 25 Sep 12:36:18 12:40:00 26° 111° (ESE) 12:43:43 436.795
LO-87 25 Sep 12:53:32 12:55:32 14° 289° (WNW) 12:57:32 145.935 - 145.965
NANOSAT C BR1 25 Sep 13:01:49 13:04:53 20° 264° (W) 13:07:59 145.865
DX 1 25 Sep 13:10:42 13:11:50 11° 94° (E) 13:12:58 434.975-435.025
ESTCUBE 1 25 Sep 13:23:05 13:25:48 16° 291° (WNW) 13:28:31 437.505/2401.250
SPROUT 25 Sep 13:25:32 13:29:47 62° 283° (WNW) 13:34:00 437.525
Oscar 19 25 Sep 13:31:26 13:36:35 71° 75° (ENE) 13:41:46 437.125/150
M-CUBED/EXP-1 PRIME 25 Sep 13:31:28 13:34:52 22° 258° (WSW) 13:38:08 437.505
DUCHIFAT 1 25 Sep 13:32:00 13:32:22 10° 267° (W) 13:32:44 145.980
Gurwin Techsat 1B 25 Sep 13:32:38 13:37:40 46° 73° (ENE) 13:42:44 435.225
VELOX 1 25 Sep 13:41:40 13:45:58 58° 285° (WNW) 13:50:17 145.980
AO-7 25 Sep 13:45:01 13:49:16 15° 56° (ENE) 13:53:31 .
